| time (UTC) | temp F | wind direction | speed knots | gust knots | rain 1hr in | rain 24hr in | rain mn in | humidity % | barometer mb |
| 20260507134551 | 46 | 166 | 0.9 | 11.3 | 0.00 | 0.13 | 0.00 | 88 | 1003.3 |
| 20260507133102 | 46 | 138 | 4.3 | 17.4 | 0.00 | 0.13 | 0.00 | 87 | 1003.4 |
| 20260507131553 | 46 | 204 | 0.0 | 0.0 | 0.00 | 0.13 | 0.00 | 89 | 1003.4 |
| 20260507130101 | 44 | 171 | 0.0 | 0.9 | 0.00 | 0.13 | 0.00 | 90 | 1003.3 |
| 20260507124542 | 44 | 156 | 0.0 | 10.4 | 0.00 | 0.15 | 0.00 | 91 | 1003.7 |
| 20260507123042 | 44 | 156 | 13.0 | 18.2 | 0.00 | 0.15 | 0.00 | 92 | 1003.5 |
| 20260507121543 | 43 | 265 | 0.0 | 0.0 | 0.00 | 0.15 | 0.00 | 90 | 1003.7 |
| 20260507120052 | 43 | 332 | 0.0 | 0.0 | 0.00 | 0.15 | 0.00 | 92 | 1003.7 |
| 20260507114602 | 43 | 332 | 0.0 | 0.0 | 0.00 | 0.15 | 0.00 | 93 | 1003.8 |
| 20260507113035 | 42 | 5 | 0.0 | 0.0 | 0.00 | 0.15 | 0.00 | 93 | 1003.9 |
| 20260507111536 | 41 | 28 | 0.0 | 0.0 | 0.00 | 0.15 | 0.00 | 93 | 1003.8 |
| 20260507110034 | 41 | 7 | 0.0 | 0.0 | 0.00 | 0.15 | 0.00 | 93 | 1003.8 |
| 20260507104533 | 40 | 355 | 0.0 | 0.0 | 0.00 | 0.15 | 0.00 | 93 | 1003.6 |
| 20260507103033 | 40 | 31 | 0.0 | 0.0 | 0.00 | 0.15 | 0.00 | 93 | 1003.6 |
| 20260507101532 | 40 | 2 | 0.0 | 0.0 | 0.00 | 0.15 | 0.00 | 93 | 1003.7 |
| 20260507100034 | 40 | 335 | 0.0 | 0.0 | 0.00 | 0.15 | 0.00 | 93 | 1003.6 |
| 20260507094531 | 40 | 355 | 0.0 | 0.0 | 0.00 | 0.15 | 0.00 | 93 | 1003.7 |
| 20260507093030 | 39 | 348 | 0.0 | 0.0 | 0.00 | 0.15 | 0.00 | 93 | 1003.7 |
| 20260507091535 | 40 | 356 | 0.0 | 0.0 | 0.00 | 0.15 | 0.00 | 93 | 1003.7 |
| 20260507090036 | 40 | 353 | 0.0 | 0.0 | 0.00 | 0.15 | 0.00 | 93 | 1003.7 |
| 20260507084529 | 40 | 341 | 0.0 | 0.0 | 0.00 | 0.15 | 0.00 | 93 | 1003.7 |
| 20260507083032 | 40 | 332 | 0.0 | 1.7 | 0.00 | 0.15 | 0.00 | 93 | 1003.8 |
| 20260507081526 | 40 | 337 | 0.0 | 0.0 | 0.00 | 0.15 | 0.00 | 93 | 1003.6 |
| 20260507080025 | 40 | 336 | 0.0 | 0.0 | 0.00 | 0.15 | 0.00 | 93 | 1003.8 |
| 20260507074524 | 40 | 3 | 0.9 | 17.4 | 0.00 | 0.15 | 0.00 | 93 | 1003.9 |
| 20260507073022 | 40 | 9 | 12.2 | 20.9 | 0.00 | 0.15 | 0.00 | 93 | 1004.0 |
| 20260507071520 | 40 | 12 | 11.3 | 21.7 | 0.00 | 0.15 | 0.00 | 93 | 1003.9 |
| 20260507070021 | 40 | 342 | 7.8 | 14.8 | 0.00 | 0.15 | 0.00 | 93 | 1004.1 |
| 20260507064513 | 40 | 328 | 6.1 | 15.6 | 0.00 | 0.15 | 0.00 | 93 | 1004.3 |
| 20260507063011 | 40 | 20 | 0.9 | 13.0 | 0.00 | 0.15 | 0.00 | 93 | 1004.3 |
| 20260507061509 | 40 | 360 | 0.0 | 11.3 | 0.00 | 0.15 | 0.00 | 93 | 1004.3 |
| 20260507060007 | 41 | 19 | 0.0 | 0.0 | 0.00 | 0.15 | 0.00 | 93 | 1004.4 |
| 20260507054513 | 41 | 26 | 0.0 | 0.0 | 0.00 | 0.15 | 0.00 | 92 | 1004.5 |
| 20260507053004 | 41 | 31 | 0.0 | 1.7 | 0.00 | 0.15 | 0.00 | 92 | 1004.6 |
| 20260507051502 | 41 | 4 | 0.0 | 0.0 | 0.00 | 0.15 | 0.00 | 93 | 1004.7 |
| 20260507050100 | 41 | 322 | 0.0 | 0.0 | 0.00 | 0.15 | 0.00 | 92 | 1004.6 |
| 20260507044658 | 42 | 331 | 0.0 | 0.0 | 0.00 | 0.15 | 0.00 | 93 | 1004.7 |
| 20260507043055 | 42 | 351 | 0.0 | 0.0 | 0.00 | 0.15 | 0.00 | 93 | 1004.9 |
| 20260507041553 | 42 | 345 | 0.0 | 1.7 | 0.00 | 0.15 | 0.00 | 92 | 1005.1 |
| 20260507040054 | 42 | 337 | 0.0 | 0.0 | 0.00 | 0.15 | 0.00 | 93 | 1005.4 |
| 20260507034554 | 42 | 2 | 0.0 | 0.0 | 0.00 | 0.15 | 0.15 | 93 | 1005.5 |
| 20260507033051 | 42 | 341 | 0.0 | 0.0 | 0.00 | 0.15 | 0.15 | 92 | 1005.5 |
| 20260507031547 | 42 | 339 | 0.0 | 8.7 | 0.00 | 0.15 | 0.15 | 92 | 1005.7 |
| 20260507030046 | 43 | 349 | 0.0 | 0.0 | 0.00 | 0.15 | 0.15 | 93 | 1005.7 |
| 20260507024548 | 43 | 2 | 0.0 | 6.1 | 0.00 | 0.15 | 0.15 | 92 | 1005.6 |
| 20260507023049 | 43 | 358 | 0.0 | 0.0 | 0.00 | 0.15 | 0.15 | 92 | 1005.8 |
| 20260507021546 | 43 | 339 | 0.0 | 0.0 | 0.00 | 0.15 | 0.15 | 92 | 1005.9 |
| 20260507020104 | 43 | 27 | 0.0 | 0.0 | 0.00 | 0.15 | 0.15 | 92 | 1005.7 |
| 20260507014541 | 43 | 2 | 0.0 | 7.8 | 0.00 | 0.15 | 0.15 | 92 | 1005.9 |
| 20260507013050 | 44 | 2 | 0.0 | 0.0 | 0.00 | 0.15 | 0.15 | 92 | 1006.2 |
| 20260507011540 | 44 | 339 | 0.0 | 0.0 | 0.00 | 0.15 | 0.15 | 92 | 1006.4 |
| 20260507010039 | 44 | 333 | 0.0 | 0.0 | 0.00 | 0.15 | 0.15 | 91 | 1006.4 |
| 20260507004551 | 44 | 229 | 0.0 | 0.0 | 0.00 | 0.15 | 0.15 | 91 | 1006.5 |
| 20260507003044 | 44 | 229 | 0.0 | 0.0 | 0.00 | 0.15 | 0.15 | 91 | 1006.5 |
| 20260507001544 | 45 | 177 | 0.0 | 0.0 | 0.00 | 0.15 | 0.15 | 90 | 1006.3 |
| 20260507000038 | 45 | 177 | 0.0 | 0.0 | 0.00 | 0.15 | 0.15 | 90 | 1006.3 |
| 20260506234541 | 45 | 177 | 0.0 | 0.0 | 0.00 | 0.15 | 0.15 | 90 | 1006.4 |
| 20260506233039 | 45 | 177 | 0.0 | 0.0 | 0.00 | 0.15 | 0.15 | 89 | 1006.5 |
| 20260506231537 | 45 | 177 | 0.0 | 0.0 | 0.00 | 0.15 | 0.15 | 90 | 1006.4 |
| 20260506230045 | 45 | 177 | 0.0 | 0.0 | 0.00 | 0.15 | 0.15 | 90 | 1006.3 |
| 20260506224535 | 45 | 177 | 0.0 | 0.0 | 0.00 | 0.15 | 0.15 | 90 | 1006.3 |
| 20260506223042 | 45 | 177 | 0.0 | 0.0 | 0.00 | 0.15 | 0.15 | 90 | 1006.4 |
| 20260506221534 | 45 | 177 | 0.0 | 0.0 | 0.01 | 0.15 | 0.15 | 90 | 1006.5 |
| 20260506220034 | 45 | 177 | 0.0 | 0.0 | 0.01 | 0.15 | 0.15 | 90 | 1006.7 |
| 20260506214540 | 45 | 177 | 0.0 | 0.0 | 0.01 | 0.23 | 0.15 | 90 | 1006.7 |
| 20260506213037 | 45 | 174 | 0.0 | 0.0 | 0.01 | 0.23 | 0.15 | 90 | 1006.8 |
| 20260506211532 | 45 | 156 | 0.0 | 0.0 | 0.00 | 0.22 | 0.14 | 90 | 1006.6 |
| 20260506210033 | 45 | 160 | 0.0 | 10.4 | 0.00 | 0.22 | 0.14 | 90 | 1006.7 |
| 20260506204532 | 45 | 169 | 0.0 | 0.0 | 0.00 | 0.22 | 0.14 | 91 | 1006.8 |
| 20260506203033 | 44 | 169 | 0.0 | 0.9 | 0.00 | 0.22 | 0.14 | 92 | 1006.8 |
| 20260506201530 | 44 | 172 | 0.0 | 0.0 | 0.00 | 0.22 | 0.14 | 93 | 1007.0 |
| 20260506200031 | 44 | 161 | 0.9 | 10.4 | 0.00 | 0.22 | 0.14 | 93 | 1007.1 |
| 20260506194529 | 44 | 160 | 0.9 | 14.8 | 0.00 | 0.22 | 0.14 | 92 | 1007.1 |
| 20260506193028 | 45 | 251 | 4.3 | 18.2 | 0.01 | 0.22 | 0.14 | 93 | 1007.1 |
| 20260506191526 | 45 | 195 | 13.9 | 18.2 | 0.02 | 0.22 | 0.14 | 93 | 1007.3 |
| 20260506190026 | 44 | 200 | 13.0 | 20.0 | 0.02 | 0.22 | 0.14 | 93 | 1007.3 |
| 20260506184540 | 44 | 181 | 12.2 | 18.2 | 0.03 | 0.22 | 0.14 | 93 | 1007.4 |
| 20260506183036 | 44 | 196 | 13.9 | 20.0 | 0.03 | 0.21 | 0.13 | 93 | 1007.6 |
| 20260506181530 | 44 | 251 | 11.3 | 20.0 | 0.04 | 0.20 | 0.12 | 93 | 1007.8 |
| 20260506180027 | 44 | 251 | 10.4 | 15.6 | 0.05 | 0.20 | 0.12 | 93 | 1007.9 |
| 20260506174524 | 44 | 251 | 13.0 | 18.2 | 0.05 | 0.21 | 0.11 | 93 | 1007.9 |
| 20260506173019 | 44 | 205 | 15.6 | 23.5 | 0.04 | 0.20 | 0.10 | 93 | 1007.9 |
| 20260506171518 | 44 | 211 | 18.2 | 26.9 | 0.04 | 0.18 | 0.08 | 92 | 1008.0 |
| 20260506170016 | 44 | 205 | 20.9 | 25.2 | 0.04 | 0.17 | 0.07 | 92 | 1007.9 |
| 20260506164514 | 44 | 193 | 15.6 | 21.7 | 0.03 | 0.16 | 0.06 | 91 | 1008.0 |
| 20260506163013 | 44 | 197 | 18.2 | 23.5 | 0.03 | 0.16 | 0.06 | 91 | 1008.2 |
| 20260506161514 | 44 | 193 | 20.0 | 24.3 | 0.01 | 0.14 | 0.04 | 90 | 1008.4 |
| 20260506160013 | 45 | 196 | 21.7 | 25.2 | 0.00 | 0.13 | 0.03 | 89 | 1008.6 |
| 20260506154509 | 45 | 195 | 20.0 | 24.3 | 0.00 | 0.13 | 0.03 | 87 | 1008.6 |
| 20260506153012 | 46 | 185 | 19.1 | 26.1 | 0.00 | 0.13 | 0.03 | 85 | 1008.6 |
| 20260506151503 | 47 | 159 | 14.8 | 20.0 | 0.00 | 0.13 | 0.03 | 78 | 1008.4 |
| 20260506150003 | 48 | 137 | 0.0 | 0.0 | 0.00 | 0.13 | 0.03 | 77 | 1008.6 |
| 20260506144503 | 47 | 202 | 0.0 | 0.9 | 0.00 | 0.13 | 0.03 | 79 | 1008.6 |
| 20260506143102 | 48 | 145 | 0.0 | 0.9 | 0.00 | 0.13 | 0.03 | 79 | 1008.4 |
| 20260506143002 | 48 | 145 | 0.0 | 0.9 | 0.00 | 0.13 | 0.03 | 79 | 1008.4 |
| 20260506141559 | 47 | 319 | 0.0 | 13.0 | 0.00 | 0.13 | 0.03 | 82 | 1008.4 |
| 20260506140106 | 47 | 152 | 7.8 | 18.2 | 0.01 | 0.13 | 0.03 | 81 | 1008.3 |